Simultaneous Nadir Overpasses (SNOs) Predictions

Prediction of SNOs between GOES-17 and LANDSAT-8 Satellite Orbit:

Table of predicted SNOs for the next 14.0 days since TLE Epoch: 8/29/2025
Index Date Time (GOES-17) GOES-17 Lat,Lon LANDSAT-8 Lat,Lon Distance(km) Time Diff (sec)
1 08/31/2025 04:05:19 -0.11, -89.50 0.10, -88.57 105.34 80
2 08/31/2025 16:29:14 0.13, -89.55 1.05, -93.72 475.34 80
3 09/02/2025 03:53:09 -0.11, -89.51 0.73, -85.62 442.33 80
4 09/02/2025 16:17:04 0.13, -89.56 0.41, -90.77 138.32 80
5 09/04/2025 16:02:14 0.13, -89.57 -0.24, -87.82 199.02 80
6 09/05/2025 04:26:18 -0.15, -89.53 -0.89, -93.00 395.50 80
7 09/07/2025 04:14:08 -0.14, -89.54 -0.22, -90.06 57.59 80
8 09/09/2025 03:59:17 -0.14, -89.57 0.40, -87.10 280.95 80
9 09/09/2025 16:23:12 0.16, -89.62 0.74, -92.25 299.22 80
10 09/11/2025 16:08:21 0.15, -89.64 0.10, -89.29 39.53 80
